Regional Weather Roundup
Issued by NWS

Home | Current Version | Previous Version | Text Only | Print | Product List | Glossary On
Versions: 1 2 3 4 5 6 7 8 9 10 11 12 13 14 15 16 17 18 19 20 21 22 23 24 25 26 27 28 29 30 31 32 33 34 35 36 37 38 39 40 41 42 43 44 45 46 47 48 49
000
ASUS46 KSEW 251210
RWRWA

WASHINGTON REGIONAL WEATHER ROUNDUP
NATIONAL WEATHER SERVICE SEATTLE WA
400 AM PST SUN JAN 25 2015

NOTE:"FAIR" INDICATES FEW OR NO CLOUDS BELOW 12,000 FEET WITH NO
SIGNIFICANT WEATHER AND/OR OBSTRUCTIONS TO VISIBILITY.

WAZ505-507>509-251300-
SEATTLE, TACOMA, EVERETT, AND VICINITY

CITY           SKY/WX    TMP DP  RH WIND       PRES   REMARKS
EVERETT        CLOUDY    54  51  90 S8        30.21S
6HR MIN TEMP:  54; 6HR MAX TEMP:  55;

BOEING FIELD   CLOUDY    56  51  84 S6        30.21S
6HR MIN TEMP:  56; 6HR MAX TEMP:  59;

RENTON         CLOUDY    54  52  93 SE5       30.21S
6HR MIN TEMP:  53; 6HR MAX TEMP:  57;

SEATAC AIRPORT FOG       53  51  93 S7        30.22S VSB 1/2
6HR MIN TEMP:  52; 6HR MAX TEMP:  56;

JBLM-MCCHORD   CLOUDY    51  51 100 SE3       30.22S FOG
6HR MIN TEMP:  47; 6HR MAX TEMP:  53;

PUYALLUP       FOG       52  52 100 CALM      30.22S VSB 1/4
BREMERTON      MOCLDY    52  50  93 S7        30.22F
6HR MIN TEMP:  48; 6HR MAX TEMP:  54;

JBLM-FT LEWIS  CLOUDY    52  52 100 SE5       30.21F FOG
6HR MIN TEMP:  49; 6HR MAX TEMP:  53; 6HR PCP: TRACE;

TACOMA NARROWS CLOUDY    51  50  96 S9        30.21F
6HR MIN TEMP:  51; 6HR MAX TEMP:  55;

$$

WAZ001-503-506-510-514-515-251300-
NORTH INTERIOR

CITY           SKY/WX    TMP DP  RH WIND       PRES   REMARKS
BELLINGHAM     FOG       52  50  93 S6        30.19S VSB 3/4
6HR MIN TEMP:  51; 6HR MAX TEMP:  55;

FRIDAY HARBOR  CLOUDY    49  48  97 CALM      30.20F
6HR MIN TEMP:  48; 6HR MAX TEMP:  51;

EASTSOUND      MOCLDY    50  50 100 SE3       30.17F
PORT ANGELES   CLOUDY    51  49  92 W6        30.19S
6HR MIN TEMP:  51; 6HR MAX TEMP:  53;

NAS WHIDBEY    MOCLDY    54  51  90 E3        30.21S
6HR MIN TEMP:  53; 6HR MAX TEMP:  55;

ARLINGTON      CLOUDY    55  52  88 S6        30.22S
6HR MIN TEMP:  55; 6HR MAX TEMP:  57;

BURLINGTON     CLOUDY    52  52 100 CALM      30.22R VSB 1/4
$$

WAZ020-022-039-040-504-511-512-251300-
SOUTHWEST INTERIOR

CITY           SKY/WX    TMP DP  RH WIND       PRES   REMARKS
SHELTON        CLOUDY    53  51  93 SW3       30.19S
6HR MIN TEMP:  53; 6HR MAX TEMP:  54;

OLYMPIA        FOG       50  50 100 CALM      30.22S VSB 3/4
6HR MIN TEMP:  50; 6HR MAX TEMP:  54;

CHEHALIS       FOG       52  52 100 CALM      30.22S VSB 1/2
KELSO          CLOUDY    46  45  93 CALM      30.25S
6HR MIN TEMP:  45; 6HR MAX TEMP:  50;

VANCOUVER      FOG       47  46  97 CALM      30.23S VSB 1/2
6HR MIN TEMP:  45; 6HR MAX TEMP:  48;

SCAPPOOSE, OR  FOG       44  44 100 CALM      30.22F VSB 1/4
6HR MIN TEMP:  41; 6HR MAX TEMP:  45;

PORTLAND, OR   FOG       48  48 100 CALM      30.23F VSB 1/4
6HR MIN TEMP:  45; 6HR MAX TEMP:  49;

$$

WAZ021-516-517-251300-
WASHINGTON COAST

CITY           SKY/WX    TMP DP  RH WIND       PRES   REMARKS
FORKS          CLOUDY    51  51 100 S5        30.19F FOG
6HR MIN TEMP:  51; 6HR MAX TEMP:  52; 6HR PCP:  0.01;

HOQUIAM        CLOUDY    52  52 100 CALM      30.20F FOG
6HR MIN TEMP:  51; 6HR MAX TEMP:  53;

ASTORIA, OR    FOG       48  47  96 NE3       30.19F VSB 1/4
6HR MIN TEMP:  47; 6HR MAX TEMP:  52;

$$

WAZ019-023-024-040-518-519-251300-
CASCADE MOUNTAINS AND COLUMBIA GORGE

CITY           SKY/WX    TMP DP  RH WIND       PRES   REMARKS
TROUTDALE, OR  FOG       45  44  97 CALM      30.22S VSB 3/4
6HR MIN TEMP:  45; 6HR MAX TEMP:  50;

THE DALLES, OR FOG       47  46  97 CALM      30.24F VSB 1/4
6HR MIN TEMP:  43; 6HR MAX TEMP:  47;

$$

WAZ026-027-041>044-520-521-251300-
EAST SLOPES

CITY           SKY/WX    TMP DP  RH WIND       PRES   REMARKS
OMAK           FOG       34  33  96 CALM      30.25R VSB 1/2
6HR MIN TEMP:  34; 6HR MAX TEMP:  35;

WENATCHEE      FOG       35  34  96 W6        30.25R VSB 1/4
6HR MIN TEMP:  35; 6HR MAX TEMP:  38;

ELLENSBURG     FOG       43  41  93 CALM      30.23R VSB 1/4
6HR MIN TEMP:  43; 6HR MAX TEMP:  45;

YAKIMA         FOG       32  30  92 CALM      30.24F VSB 1/4
6HR MIN TEMP:  31; 6HR MAX TEMP:  37;

$$

WAZ028-034-035-251300-
COLUMBIA BASIN

CITY           SKY/WX    TMP DP  RH WIND       PRES   REMARKS
EPHRATA        CLOUDY    35  34  96 NW5       30.24R FOG
6HR MIN TEMP:  35; 6HR MAX TEMP:  37;

MOSES LAKE     FOG       36  36 100 CALM      30.25S VSB 1/4
6HR MIN TEMP:  36; 6HR MAX TEMP:  37;

PASCO          MOCLDY    30  30 100 N5        30.27S
6HR MIN TEMP:  30; 6HR MAX TEMP:  35;

HERMISTON, OR  CLOUDY    36  36 100 CALM      30.22F FOG
6HR MIN TEMP:  34; 6HR MAX TEMP:  40;

$$

WAZ036>038-251300-
NORTHEAST WASHINGTON

CITY           SKY/WX    TMP DP  RH WIND       PRES   REMARKS
SPOKANE GEIGER CLOUDY    43  41  93 S3        30.22S
6HR MIN TEMP:  37; 6HR MAX TEMP:  45;

SPOKANE FELTS  CLOUDY    40  37  89 S3        30.23F
6HR MIN TEMP:  40; 6HR MAX TEMP:  41;

FAIRCHILD AFB  CLOUDY    43  43 100 CALM      30.21S
6HR MIN TEMP:  37; 6HR MAX TEMP:  44; 6HR PCP: TRACE;

COEURDALENE,ID CLOUDY    39  37  93 S5        30.21S
6HR MIN TEMP:  36; 6HR MAX TEMP:  45;

DEER PARK      FOG       35  34  96 W5        30.23S VSB 1/2
6HR MIN TEMP:  34; 6HR MAX TEMP:  37;

$$

WAZ029>033-251300-
SOUTHEAST WASHINGTON

CITY           SKY/WX    TMP DP  RH WIND       PRES   REMARKS
PULLMAN        CLOUDY    44  38  79 E8        30.27S
6HR MIN TEMP:  44; 6HR MAX TEMP:  46;

LEWISTON, ID   CLOUDY    47  39  74 CALM      30.26F
6HR MIN TEMP:  46; 6HR MAX TEMP:  51;

WALLA WALLA    MOCLDY    44  39  82 SE5       30.22F
6HR MIN TEMP:  38; 6HR MAX TEMP:  45;

PENDLETON, OR  CLOUDY    45  39  79 E5        30.23S
6HR MIN TEMP:  43; 6HR MAX TEMP:  53;

$$


USA.gov is the U.S. government's official web portal to all federal, state and local government web resources and services.